www.pogodaiklimat.ru

Погода и климат >> Архив погоды >> Гана >> Bole


ПОГОДА в Bole

  • Прогноз погоды в Bole
  • Монитор погоды в Bole
  • Климат города

АРХИВ ПОГОДЫ в Bole

Время (UTC), дата Ветер
(напр.,м/с)
 
Видим.   Явления Облачность Т
(С)
Тd
(С)
f
(%)
Тe
(С)
Тes
(С)
Комфортность P
(гПа)
Po
(гПа)
Тmin
(С)
Tmax
(С)
R
(мм)
R24
(мм)
S
(см)
06 14.10 штиль 0 15 км 8/0
[Cs]
+23.2 +21.9 92 +31 +31 очень
душно
1012.6 1013.0 +23.2
09 14.10 ЮЗ 2 16 км 9/6 360 м
[Sc Ac trans]
+25.5 +23.1 87 +34 +36 очень
душно
1014.6 1015.0
12 14.10 ЮЗ 2 18 км 8/5 450 м
[Cu med, cong Ac trans]
+31.0 +23.6 65 +42 +49 опасность
перегрева
1012.9 1013.0
15 14.10 С 2 16 км 8/6 450 м
[Cu med, cong Ac trans]
+30.5 +22.9 64 +40 +44 очень
душно
1010.3 1010.0
18 14.10 Ю 2 18 км гроза без осадков {дождь} 8/1 900 м
[Cb cap Ac trans]
+25.5 +23.1 87 +34 +34 очень
душно
1011.9 1012.0 +32.9 13
21 14.10 ЮВ 2 14 км гроза без осадков 6/1 900 м
[Cb cap Ac trans]
+23.5 +20.3 82 +29 +29 душно 1015.3 1015.0
03 15.10 штиль 0 14 км 6/0
[Ac trans]
+22.5 +21.5 94 +30 +30 очень
душно
1012.6 1013.0
06 15.10 штиль 0 14 км 5/0
[Ac trans]
+22.5 +21.5 94 +30 +30 очень
душно
1014.1 1014.0 +22.5 13
09 15.10 ЮЗ 1 15 км 8/0
[Cs]
+27.0 +22.4 76 +35 +44 очень
душно
1015.3 1015.0
12 15.10 ЮЗ 1 18 км 8/8 480 м
[Cu med, cong]
+31.0 +22.9 62 +41 +46 опасность
перегрева
1013.9 1014.0
15 15.10 ЮВ 2 18 км 4/4 540 м
[Cu med, cong Ci sp]
+33.0 +21.1 50 +41 +47 опасность
перегрева
1009.4 1009.0
18 15.10 ЮВ 1 16 км 4/0
[Ac trans]
+30.0 +23.9 70 +41 +41 опасность
перегрева
1012.0 1012.0 +33.0
21 15.10 штиль 0 15 км ясно +25.5 +23.4 88 +34 +34 очень
душно
1015.2 1015.0
00 16.10 штиль 0 15 км ясно +24.1 +22.4 90 +31 +31 очень
душно
1014.9 1015.0
03 16.10 ЮЗ 1 15 км ясно +23.0 +21.3 90 +31 +31 очень
душно
1012.3 1012.0
06 16.10 ЮЗ 1 15 км 3/0
[Ci fib]
+23.0 +22.0 94 +31 +31 очень
душно
1013.9 1014.0 +23.0
09 16.10 З 2 18 км ясно +26.5 +22.5 79 +35 +44 очень
душно
1016.9 1017.0
12 16.10 штиль 0 18 км 3/3 450 м
[Cu hum]
+32.0 +24.0 63 +44 +62 опасность
перегрева
1014.7 1015.0
15 16.10 СВ 2 16 км 4/4 450 м
[Cu med, cong]
+34.0 +21.4 48 +42 +49 опасность
перегрева
1011.9 1012.0
18 16.10 ЮВ 2 18 км 5/0 450 м
[Ac trans]
+29.9 +21.8 62 +38 +38 очень
душно
1012.7 1013.0 +34.0
21 16.10 ЮВ 3 15 км ясно +26.5 +21.1 72 +33 +33 очень
душно
1016.7 1017.0
03 17.10 штиль 0 10 км 4/0
[Ci sp]
+24.2 +22.2 89 +31 +31 очень
душно
1014.2 1014.0
06 17.10 штиль 0 15 км 6/0
[Ac trans]
+22.5 +21.5 94 +30 +30 очень
душно
1015.2 1015.0 +22.5
09 17.10 штиль 0 18 км 5/0
[Ac trans]
+28.0 +22.7 73 +37 +45 очень
душно
1016.4 1016.0
12 17.10 СВ 1 18 км 1/1 480 м
[Cu med, cong]
+33.0 +21.9 52 +41 +62 опасность
перегрева
1013.6 1014.0
15 17.10 СВ 2 18 км 3/0
[Ac trans]
+34.5 +18.5 39 +39 +48 очень
душно
1011.3 1011.0
18 17.10 штиль 0 15 км ясно +30.0 +20.9 58 +37 +37 очень
душно
1013.0 1013.0 +34.5
21 17.10 штиль 0 15 км ясно +25.0 +21.1 79 +32 +32 очень
душно
1015.6 1016.0
06 18.10 штиль 0 15 км 3/0
[Ac trans]
+21.5 +20.2 92 +27 +27 душно 1014.4 1014.0 +21.5
09 18.10 ЮЗ 1 18 км 8/0
[Cs]
+28.0 +23.4 76 +38 +46 очень
душно
1015.7 1016.0
12 18.10 ЮВ 3 18 км 3/0
[Ci sp]
+33.5 +20.0 45 +40 +54 опасность
солнечного
удара
1013.0 1013.0
15 18.10 СВ 1 18 км 1/1 500 м
[Cu med, cong]
+34.0 +18.8 41 +39 +51 опасность
солнечного
удара
1011.1 1011.0
18 18.10 ЮВ 1 18 км 8/0
[Ci sp]
+29.5 +19.5 55 +35 +35 очень
душно
1013.1 1013.0 +34.0
21 18.10 штиль 0 15 км ясно +25.0 +21.7 82 +32 +32 очень
душно
1015.0 1015.0
00 19.10 штиль 0 15 км ясно +23.6 +21.1 86 +30 +30 очень
душно
1014.9 1015.0
03 19.10 ЮЗ 1 15 км ясно +22.4 +20.5 89 +29 +29 очень
душно
1012.4 1012.0
06 19.10 ЮЗ 1 15 км 4/0
[Ci sp]
+21.7 +20.4 92 +27 +27 душно 1014.2 1014.0 +21.7
09 19.10 ЮЗ 1 16 км 8/0
[Cs]
+26.6 +22.8 80 +35 +44 очень
душно
1016.0 1016.0
12 19.10 ЮЗ 2 16 км 8/4 450 м
[Cu med, cong Cs]
+32.4 +23.5 59 +43 +54 опасность
перегрева
1013.2 1013.0
18 19.10 штиль 0 18 км 6/0
[Ac trans Cs]
+30.0 +21.7 61 +38 +38 очень
душно
1011.7 1012.0 +34.5
12 20.10 Ю 2 18 км 3/0
[Ac trans Ci fib]
+34.4 +20.4 44 +41 +56 опасность
перегрева
1012.0 1012.0
18 20.10 штиль 0 15 км 4/1 360 м
[Cu Sc Ci sp]
+30.3 +20.8 57 +38 +38 очень
душно
1012.0 1012.0 +34.9

 

Местоположение метеостанции Bole (Гана): широта 9.03 долгота -2.48 высота над уровнем моря 301 м.

В архиве по умолчанию представлена погода в Bole за последнюю неделю. Архивные данные за месяц целиком и за предыдущие месяцы, начиная с января 2011 года, Вы можете получить, выбрав интересующий диапазон дат из раскрывающегося списка и нажав кнопку "Ввод!".

Внимание! Время в таблицах - всемирное. Для получения местного времени необходимо прибавить поправку, которая в Bole равна 1 ч.

Смотрите также архив погоды в соседних городах и на ближайших метеорологических станциях:

Погода в Wa (Гана) (113 км)
Погода в Bondoukou (Кот-д'Ивуар) (114 км)
Погода в Wenchi (Гана) (148 км)
Погода в Gaoua (Буркина-Фасо) (164 км)
Погода в Tamale (Гана) (186 км)
Погода в Sunyani (Гана) (190 км)
Погода в Navrongo (Гана) (257 км)
Погода в Yendi (Гана) (274 км)
Погода в Kumasi (Гана) (275 км)
Погода в Po (Буркина-Фасо) (277 км)

Пояснения к столбцам:

Ветер - указаны скорость ветра в м/с - средняя за 10 мин, порывы в срок и между сроками (в фигурных скобках) и направление, откуда дует ветер: С - северный, СВ - северо-восточный, В - восточный, ЮВ - юго-восточный, Ю - южный, ЮЗ - юго-западный, З - западный, СЗ - северо-западный.
Видимость - горизонтальная дальность видимости в метрах или километрах. При видимости от 1 до 10 км при отсутствии осадков обычно наблюдается дымка, при ухудшении видимости до 1 км и менее - туман. В сухую погоду видимость может ухудшаться дымом, пылью или мглою.
Явления - указаны атмосферные явления, наблюдавшиеся в срок или в последний час перед сроком; фигурными скобками обозначены явления, наблюдавшиеся между сроками (за 1-3 часа до срока); квадратными скобками обозначены град или гололедные отложения с указанием их диаметра в мм.
Облачность - указаны через наклонную черту общая и нижняя облачность в баллах и высота нижней границы облаков в метрах; квадратными скобками обозначены формы облаков: Ci - перистые, Cs - перисто-слоистые, Cc - перисто-кучевые, Ac - высококучевые, As - высокослоистые, Sc - слоисто-кучевые, Ns - слоисто-дождевые, Cu - кучевые, Cb - кучево-дождевые. Подробнее классификацию облаков см. в Атласе облаков (PDF).
T - Температура воздуха - температура, измеренная на высоте 2 м над землей.
Td - Температура точки росы - температура, при понижении до которой содержащийся в воздухе водяной пар достигнет насыщения.
f - Относительная влажность воздуха - влажноcть воздуха, измеренная на высоте 2 м над землей.
Te - Эффективная температура - температура, которую ощущает одетый по сезону человек в тени. Характеристика душности погоды. При расчете учитывается влияние влажности воздуха и скорости ветра на теплоощущения человека.
Tes - Эффективная температура на солнце - температура, которую ощущает человек, с поправкой на солнечный нагрев. Характеристика знойности погоды. Зависит от высоты солнца над горизонтом, облачности и скорости ветра. Ночью, в пасмурную погоду, а также при ветре 12 м/с и более поправка равна нулю.
P - Атмосферное давление - приведенное к уровню моря атмосферное давление.
Po - Атмосферное давление - измеренное на уровне метеостанции атмосферное давление.
Tmin - Минимальная температура - минимум температуры воздуха на высоте 2 м над землей.
Tmax - Максимальная температура - максимум температуры воздуха на высоте 2 м над землей.
R - Количество осадков - Количество выпавших осадков за период времени, мм. При наведении курсора мыши на число - период времени, за который выпало указанное количество осадков.
R24 - Количество осадков - Количество выпавших осадков за 24 часа, мм.
S - Снежный покров - Высота снежного покрова, см. При наведении курсора мыши на число - состояние снежного покрова и степень покрытия местности в баллах.